Notices

What's New in latest Release from April 7th, 2021:

- Updated Glossary, including Speed of Maximum Gust, and Total Hourly Precipitation

- Updated national and regional climate services offices contacts and prices information

- Addition of station inventory lists for 1981-2010, 1971-2000, and 1961-1990 Normals.

If you haven't already, please take our survey and provide feedback about our website: https://eccc.sondage-survey.ca/f/LanguageSelection.aspx?s=442ca660-fcf1-47c0-95a9-59707d6fd709

Hourly Data Report for December 11, 2004

TORONTO CITY
ONTARIO

43°40'00.000" N
79°24'00.000" W
112.50 m
6158355
71508
XTO

Download Data

Hourly Data (December 2004)
Hourly Data Report for December 11, 2004
TIME
LST
Temp Definition
°C
Dew Point Definition
°C
Rel Hum Definition
%
Precip. Amount Definition
mm

Wind Dir Definition
10's deg

Wind Spd Definition
km/h
Visibility Definition
km
Stn Press Definition
kPa
Hmdx Definition


Wind Chill Definition


Weather Definition


00:00 2.4 1.7 95   LegendMM LegendMM LegendMM 98.36     LegendNANA
01:00 2.1 1.4 95   LegendMM LegendMM LegendMM 98.31     LegendNANA
02:00 1.8 1.1 95   LegendMM LegendMM LegendMM 98.28     LegendNANA
03:00 1.6 0.9 95   LegendMM LegendMM LegendMM 98.28     LegendNANA
04:00 1.2 0.4 94   LegendMM LegendMM LegendMM 98.23     LegendNANA
05:00 1.0 0.0 93   LegendMM LegendMM LegendMM 98.22     LegendNANA
06:00 1.0 -0.3 91   LegendMM LegendMM LegendMM 98.25     LegendNANA
07:00 1.1 -0.5 89   LegendMM LegendMM LegendMM 98.29     LegendNANA
08:00 0.9 -1.0 87   LegendMM LegendMM LegendMM 98.29     LegendNANA
09:00 0.8 -0.8 89   LegendMM LegendMM LegendMM 98.31     LegendNANA
10:00 1.4 -1.0 84   LegendMM LegendMM LegendMM 98.34     LegendNANA
11:00 1.2 -1.0 85   LegendMM LegendMM LegendMM 98.32     LegendNANA
12:00 1.3 -0.7 87   LegendMM LegendMM LegendMM 98.31     LegendNANA
13:00 0.3 -0.5 94   LegendMM LegendMM LegendMM 98.30     LegendNANA
14:00 0.4 0.0 97   LegendMM LegendMM LegendMM 98.30     LegendNANA
15:00 0.3 -0.2 96   LegendMM LegendMM LegendMM 98.34     LegendNANA
16:00 -0.1 -0.7 96   LegendMM LegendMM LegendMM 98.42     LegendNANA
17:00 0.0 -1.3 91   LegendMM LegendMM LegendMM 98.49     LegendNANA
18:00 0.0 -1.6 89   LegendMM LegendMM LegendMM 98.54     LegendNANA
19:00 -0.1 -1.9 88   LegendMM LegendMM LegendMM 98.63     LegendNANA
20:00 -0.1 -1.9 88   LegendMM LegendMM LegendMM 98.69     LegendNANA
21:00 -0.5 -2.5 86   LegendMM LegendMM LegendMM 98.74     LegendNANA
22:00 -0.7 -2.5 88   LegendMM LegendMM LegendMM 98.78     LegendNANA
23:00 -0.7 -2.1 90   LegendMM LegendMM LegendMM 98.77     LegendNANA

Notes on Data Quality.

Legend

  • E = Estimated
  • M = Missing
  • NA = Not Available*
  • [empty] = Indicates an unobserved value
Date modified: